AirNav   Air Wisconsin Up To $57,000 Bonus
 
 1476 users online  

KEDU University Airport
Davis, California, USA

GOING TO DAVIS?


FAA INFORMATION EFFECTIVE 07 NOVEMBER 2019

Location

FAA Identifier: EDU
Lat/Long: 38-31-53.2640N 121-47-11.3340W
38-31.887733N 121-47.188900W
38.5314622,-121.7864817
(estimated)
Elevation: 68.4 ft. / 20.8 m (surveyed)
Variation: 14E (2010)
From city: 2 miles W of DAVIS, CA
Time zone: UTC -8 (UTC -7 during Daylight Saving Time)
Zip code: 95616

Airport Operations

Airport use: Open to the public
Activation date: 06/1946
Control tower: no
ARTCC: OAKLAND CENTER
FSS: RANCHO MURIETA FLIGHT SERVICE STATION
NOTAMs facility: RIU (NOTAM-D service available)
Attendance: MON-FRI 0800-1200
Pattern altitude: 868.4 ft. MSL
Wind indicator: lighted
Segmented circle: yes
Lights: ACTVT VASI RWY 35; MIRL RWY 17/35 - CTAF. SAVASI RWY 17 OPR CONSLY.
Beacon: white-green (lighted land airport)
Operates sunset to sunrise.

Airport Communications

CTAF/UNICOM: 123.075
WX AWOS-3: 119.025 (530-754-6839)
TRAVIS APPROACH: 126.6
TRAVIS DEPARTURE: 126.6
WX AWOS-3 at DWA (4 nm NW): 125.775 (530-750-2759)
WX ASOS at VCB (12 nm SW): 134.75 (707-448-1594)
WX ASOS at SMF (13 nm NE): PHONE 916-649-3996
WX ASOS at SAC (14 nm E): PHONE 916-421-0923
WX AWOS-3 at MCC (20 nm NE): 125.975 (916-641-1272)

Nearby radio navigation aids

VOR radial/distance  VOR name  Freq  Var
SACr279/12.2SACRAMENTO VORTAC115.2017E
MCCr229/19.7MC CLELLAN VOR/DME109.2017E
CCRr006/31.6CONCORD VOR/DME117.0017E
ILAr143/34.3WILLIAMS VORTAC114.4018E
SGDr036/34.8SCAGGS ISLAND VORTAC112.1017E
MYVr180/35.5MARYSVILLE VOR/DME110.8016E

Airport Services

Fuel available: 100LL
FUEL SELF-SERVICE AVBL 24 HRS.
Parking: tiedowns
Airframe service: MAJOR
Powerplant service: MAJOR
Bottled oxygen: NONE
Bulk oxygen: NONE

Runway Information

Runway 17/35

Dimensions: 3176 x 50 ft. / 968 x 15 m
Surface: asphalt, in good condition
Weight bearing capacity: 
Single wheel: OPNS LTD TO ACFT 12500 LBS OR LESS BY ARPT OWNER.
Runway edge lights: medium intensity
RWY 17/35 NSTD MIRL 35 FT FM EDGE OF RWY.
RUNWAY 17  RUNWAY 35
Latitude: 38-32.149290N38-31.626180N
Longitude: 121-47.184488W121-47.193302W
Elevation: 60.8 ft.67.5 ft.
Traffic pattern: leftleft
Runway heading: 167 magnetic, 181 true347 magnetic, 001 true
Markings: basic, in fair conditionbasic, in fair condition
Visual slope indicator: 2-box SAVASI on left (4.25 degrees glide path)2-box VASI on left (3.75 degrees glide path)
Runway end identifier lights: nono
Touchdown point: yes, no lightsyes, no lights
Obstructions: 40 ft. tree, 1113 ft. from runway, 246 ft. left of centerline, 22:1 slope to clear70 ft. trees, 1257 ft. from runway, 15:1 slope to clear

Airport Ownership and Management from official FAA records

Ownership: Publicly-owned
Owner: UNIVERSITY OF CALIFORNIA
OFFICE OF ADMIN. & RESOURCE MGT., TB206
DAVIS, CA 95616
Phone 530-752-0100
Manager: CLIFFORD CONTRERAS
TRANSP. & PARKING SERVICES, 1 SHIELDS AVE
DAVIS, CA 95616-8724
Phone 530-752-5435

Airport Operational Statistics

Aircraft based on the field: 37
Single engine airplanes: 36
Multi engine airplanes: 1
    
Aircraft operations: avg 67/day *
49% local general aviation
41% transient general aviation
10% air taxi
<1% military
* for 12-month period ending 31 December 2017

Additional Remarks

65 FT TREES LCTD S SIDE OF CREEK 1257 FT FM THR RWY 35.
TREES +40 FT, W SIDE OF RWY NEAR RWY 17 THR.
NOISE ABATEMENT, NOISE SENSITIVE AREA N OF ARPT.
AFTER HRS EMERG: UC DAVIS POLICE 530-752-1230. AFTER HRS NON-EMERG: UC DAVIS POLICE 530-752-1727.
CAUTION: REMOTE CTL ACFT WI AREA DEFINED AS 0.5 NM RAD OF 3835N/12142W (5 NM NE EDU), SFC - 1200 FT AGL, SR-SS.
FOR CD CTC OAKLAND ARTCC AT 510-745-3380.

Instrument Procedures

NOTE: All procedures below are presented as PDF files. If you need a reader for these files, you should download the free Adobe Reader.

NOT FOR NAVIGATION. Please procure official charts for flight.
FAA instrument procedures published for use from 07 November 2019 at 0901Z to 05 December 2019 at 0900Z.

 
IAPs - Instrument Approach Procedures
RNAV (GPS) RWY 17   download (164KB)
NOTE: Special Take-Off Minimums/Departure Procedures apply   download (128KB)

Other nearby airports with instrument procedures:

KDWA - Yolo County Airport (4 nm NW)
O41 - Watts-Woodland Airport (9 nm NW)
KVCB - Nut Tree Airport (12 nm SW)
KSMF - Sacramento International Airport (13 nm NE)
KSAC - Sacramento Executive Airport (14 nm E)
KSUU - Travis Air Force Base (17 nm S)
KMCC - Mc Clellan Airfield (20 nm NE)
 
Loc | Ops | Rwys | IFR | FBO | Links
Com | Nav | Svcs | Stats | Notes

Sonoma Jet Center
 
Area around KEDU (University Airport)
 
Road maps at: MapQuest Bing Google
 
Aerial photo
WARNING: Photo may not be current or correct
Aerial photo of KEDU (University Airport)
Do you have a better or more recent aerial photo of University Airport that you would like to share? If so, please send us your photo.

 
Sectional chart

 
Airport distance calculator
Flying to University Airport? Find the distance to fly.

From to KEDU

Sunrise and sunset
Times for 12-Nov-2019
 Local
(UTC-8)
 Zulu
(UTC)
Morning civil twilight06:1914:19
Sunrise06:4714:47
Sunset16:5600:56
Evening civil twilight17:2401:24

Current date and time
Zulu (UTC)  12-Nov-2019 18:50:47
Local (UTC-8)  12-Nov-2019 10:50:47
 
METAR
KEDU 121835Z AUTO 01003KT 9SM CLR 18/07 A3012 RMK AO1
KVCB 
12nm SW 
121753Z AUTO 01006KT 10SM CLR 19/08 A3012 RMK AO2 SLP200 T01890078 10194 20061 50006
KSMF 
13nm NE 
121753Z 00000KT 10SM BKN250 17/08 A3011 RMK AO2 SLP196 T01670078 10167 20067 50009
KSAC 
14nm E 
121753Z VRB03KT 6SM HZ CLR 18/07 A3012 RMK AO2 SLP198 T01780072 10178 20072 51010 $
KSUU 
17nm S 
121758Z AUTO 04006KT 10SM CLR 19/08 A3011 RMK AO2 SLP203 T01900077 10190 20065 50009 $
KMCC 
20nm NE 
121835Z AUTO 33004KT 10SM 20/05 A3013 RMK AO2
TAF
KSMF 
13nm NE 
121734Z 1218/1318 VRB04KT P6SM BKN250 TEMPO 1314/1318 5SM HZ
KSAC 
14nm E 
121734Z 1218/1318 VRB04KT P6SM BKN250 TEMPO 1314/1318 4SM HZ
KSUU 
17nm S 
121100Z 1211/1317 VRB06KT 9999 FEW200 QNH3000INS BECMG 1223/1224 23010G15KT 9999 SCT200 QNH2997INS TX26/1222Z TN06/1213Z
KMCC 
20nm NE 
121734Z 1218/1318 VRB04KT P6SM BKN250 TEMPO 1314/1318 5SM HZ
NOTAMs
Click for the latest NOTAMs
NOTAMs are issued by the DoD/FAA and will open in a separate window not controlled by AirNav.

 

 
 

Would you like to see your business listed on this page?

 If your business provides an interesting product or service to pilots, flight crews, aircraft, or users of the University Airport, you should consider listing it here.  To start the listing process, click on the button below
 
Add a business
 

Other Pages about University Airport

taps.ucdavis.edu/airport
AWOS/ASOS display
 
Update a link
 
Copyright © AirNav, LLC. All rights reserved. Privacy Policy  Contact